| time (UTC) | temp F | wind direction | speed MPH | gust MPH | rain 1hr in | rain 24hr in | rain mn in | humidity % | barometer mb |
| 20260504070205 | 55 | 229 | 2.0 | 7.0 | 0.00 | 0.00 | 0.00 | 49 | 999.4 |
| 20260504050705 | 50 | 263 | 0.0 | 0.0 | 0.00 | 0.00 | 0.00 | 61 | 1001.8 |
| 20260504050204 | 50 | 263 | 0.0 | 0.0 | 0.00 | 0.00 | 0.00 | 61 | 1001.8 |
| 20260504045705 | 51 | 263 | 0.0 | 0.0 | 0.00 | 0.00 | 0.00 | 60 | 1001.9 |
| 20260504045205 | 51 | 263 | 0.0 | 0.0 | 0.00 | 0.00 | 0.00 | 60 | 1002.0 |
| 20260504044705 | 51 | 263 | 0.0 | 1.0 | 0.00 | 0.00 | 0.00 | 59 | 1002.1 |
| 20260504044205 | 51 | 263 | 0.0 | 0.0 | 0.00 | 0.00 | 0.00 | 59 | 1002.2 |
| 20260504043704 | 51 | 263 | 0.0 | 1.0 | 0.00 | 0.00 | 0.00 | 58 | 1002.3 |
| 20260504043205 | 51 | 263 | 0.0 | 0.0 | 0.00 | 0.00 | 0.00 | 58 | 1002.3 |
| 20260504042705 | 51 | 263 | 0.0 | 0.0 | 0.00 | 0.00 | 0.00 | 58 | 1002.4 |
| 20260504042206 | 52 | 263 | 0.0 | 0.0 | 0.00 | 0.00 | 0.00 | 57 | 1002.4 |
| 20260504041704 | 52 | 263 | 0.0 | 0.0 | 0.00 | 0.00 | 0.00 | 56 | 1002.6 |
| 20260504041205 | 52 | 263 | 0.0 | 0.0 | 0.00 | 0.00 | 0.00 | 56 | 1002.7 |
| 20260504040205 | 52 | 263 | 0.0 | 0.0 | 0.00 | 0.00 | 0.00 | 54 | 1002.9 |
| 20260504035705 | 53 | 263 | 0.0 | 0.0 | 0.00 | 0.00 | 0.00 | 53 | 1003.1 |
| 20260504035205 | 53 | 263 | 0.0 | 0.0 | 0.00 | 0.00 | 0.00 | 53 | 1003.2 |
| 20260504034705 | 53 | 263 | 0.0 | 0.0 | 0.00 | 0.00 | 0.00 | 52 | 1003.3 |
| 20260504034205 | 54 | 263 | 0.0 | 0.0 | 0.00 | 0.00 | 0.00 | 52 | 1003.3 |
| 20260504033705 | 54 | 263 | 0.0 | 0.0 | 0.00 | 0.00 | 0.00 | 51 | 1003.4 |
| 20260504033205 | 54 | 263 | 0.0 | 0.0 | 0.00 | 0.00 | 0.00 | 51 | 1003.5 |
| 20260504032704 | 54 | 263 | 0.0 | 0.0 | 0.00 | 0.00 | 0.00 | 50 | 1003.6 |
| 20260504032205 | 55 | 263 | 0.0 | 0.0 | 0.00 | 0.00 | 0.00 | 49 | 1003.7 |
| 20260504031705 | 55 | 263 | 0.0 | 0.0 | 0.00 | 0.00 | 0.00 | 48 | 1003.6 |
| 20260504031205 | 55 | 263 | 0.0 | 0.0 | 0.00 | 0.00 | 0.00 | 47 | 1003.7 |
| 20260504030705 | 56 | 263 | 0.0 | 0.0 | 0.00 | 0.00 | 0.00 | 47 | 1003.7 |
| 20260504030205 | 56 | 263 | 0.0 | 0.0 | 0.00 | 0.00 | 0.00 | 46 | 1003.7 |
| 20260504025705 | 57 | 263 | 0.0 | 0.0 | 0.00 | 0.00 | 0.00 | 45 | 1003.8 |
| 20260504025205 | 57 | 263 | 0.0 | 0.0 | 0.00 | 0.00 | 0.00 | 45 | 1003.8 |
| 20260504024205 | 58 | 263 | 0.0 | 0.0 | 0.00 | 0.00 | 0.00 | 42 | 1003.8 |
| 20260504023705 | 59 | 263 | 0.0 | 0.0 | 0.00 | 0.00 | 0.00 | 42 | 1003.8 |
| 20260504023206 | 59 | 263 | 0.0 | 0.0 | 0.00 | 0.00 | 0.00 | 41 | 1003.9 |
| 20260504022706 | 60 | 263 | 0.0 | 0.0 | 0.00 | 0.00 | 0.00 | 40 | 1003.9 |
| 20260504022205 | 60 | 263 | 0.0 | 0.0 | 0.00 | 0.00 | 0.00 | 38 | 1003.9 |
| 20260504021706 | 61 | 263 | 0.0 | 0.0 | 0.00 | 0.00 | 0.00 | 37 | 1003.9 |
| 20260504021205 | 61 | 263 | 0.0 | 0.0 | 0.00 | 0.00 | 0.00 | 36 | 1004.0 |
| 20260504020705 | 62 | 263 | 0.0 | 0.0 | 0.00 | 0.00 | 0.00 | 35 | 1003.9 |
| 20260504020205 | 62 | 263 | 0.0 | 1.0 | 0.00 | 0.00 | 0.00 | 34 | 1003.9 |
| 20260504015706 | 62 | 263 | 0.0 | 2.0 | 0.00 | 0.00 | 0.00 | 34 | 1003.9 |
| 20260504014705 | 63 | 263 | 0.0 | 0.0 | 0.00 | 0.00 | 0.00 | 33 | 1003.9 |
| 20260504014205 | 64 | 263 | 0.0 | 1.0 | 0.00 | 0.00 | 0.00 | 32 | 1004.0 |
| 20260504013705 | 64 | 263 | 0.0 | 1.0 | 0.00 | 0.00 | 0.00 | 32 | 1004.0 |
| 20260504013205 | 65 | 263 | 0.0 | 3.0 | 0.00 | 0.00 | 0.00 | 31 | 1004.0 |
| 20260504012705 | 65 | 270 | 2.0 | 3.0 | 0.00 | 0.00 | 0.00 | 30 | 1004.1 |
| 20260504012205 | 65 | 268 | 1.0 | 3.0 | 0.00 | 0.00 | 0.00 | 30 | 1004.1 |
| 20260504011705 | 66 | 257 | 1.0 | 5.0 | 0.00 | 0.00 | 0.00 | 30 | 1004.1 |
| 20260504011205 | 66 | 266 | 1.0 | 3.0 | 0.00 | 0.00 | 0.00 | 31 | 1004.1 |
| 20260504010705 | 66 | 260 | 1.0 | 6.0 | 0.00 | 0.00 | 0.00 | 30 | 1004.1 |
| 20260504010205 | 66 | 267 | 2.0 | 3.0 | 0.00 | 0.00 | 0.00 | 29 | 1004.2 |
| 20260504005705 | 67 | 279 | 1.0 | 3.0 | 0.00 | 0.00 | 0.00 | 29 | 1004.2 |
| 20260504005205 | 67 | 288 | 1.0 | 3.0 | 0.00 | 0.00 | 0.00 | 28 | 1004.2 |
| 20260504004705 | 67 | 280 | 1.0 | 3.0 | 0.00 | 0.00 | 0.00 | 29 | 1004.2 |
| 20260504004205 | 67 | 273 | 1.0 | 3.0 | 0.00 | 0.00 | 0.00 | 28 | 1004.3 |
| 20260504003706 | 67 | 271 | 3.0 | 7.0 | 0.00 | 0.00 | 0.00 | 28 | 1004.3 |
| 20260504003205 | 68 | 296 | 2.0 | 7.0 | 0.00 | 0.00 | 0.00 | 27 | 1004.3 |
| 20260504002705 | 68 | 263 | 2.0 | 7.0 | 0.00 | 0.00 | 0.00 | 26 | 1004.3 |
| 20260504001705 | 68 | 283 | 6.0 | 12.0 | 0.00 | 0.00 | 0.00 | 27 | 1004.4 |
| 20260504001206 | 69 | 284 | 3.0 | 10.0 | 0.00 | 0.00 | 0.00 | 26 | 1004.5 |
| 20260504000706 | 69 | 287 | 3.0 | 9.0 | 0.00 | 0.00 | 0.00 | 27 | 1004.4 |
| 20260504000205 | 69 | 301 | 4.0 | 10.0 | 0.00 | 0.00 | 0.00 | 27 | 1004.4 |
| 20260503235705 | 69 | 277 | 3.0 | 9.0 | 0.00 | 0.00 | 0.00 | 27 | 1004.5 |
| 20260503235205 | 69 | 297 | 6.0 | 12.0 | 0.00 | 0.00 | 0.00 | 27 | 1004.5 |
| 20260503234705 | 70 | 285 | 3.0 | 9.0 | 0.00 | 0.00 | 0.00 | 27 | 1004.5 |
| 20260503234205 | 70 | 288 | 6.0 | 12.0 | 0.00 | 0.00 | 0.00 | 26 | 1004.5 |
| 20260503233706 | 70 | 297 | 5.0 | 10.0 | 0.00 | 0.00 | 0.00 | 26 | 1004.4 |
| 20260503233205 | 70 | 303 | 5.0 | 9.0 | 0.00 | 0.00 | 0.00 | 27 | 1004.5 |
| 20260503232705 | 71 | 234 | 3.0 | 7.0 | 0.00 | 0.00 | 0.00 | 25 | 1004.5 |
| 20260503232206 | 70 | 243 | 3.0 | 7.0 | 0.00 | 0.00 | 0.00 | 26 | 1004.6 |
| 20260503231706 | 70 | 293 | 3.0 | 12.0 | 0.00 | 0.00 | 0.00 | 25 | 1004.7 |
| 20260503231206 | 70 | 284 | 4.0 | 14.0 | 0.00 | 0.00 | 0.00 | 25 | 1004.8 |
| 20260503230705 | 70 | 316 | 3.0 | 8.0 | 0.00 | 0.00 | 0.00 | 25 | 1004.8 |
| 20260503225705 | 70 | 295 | 6.0 | 10.0 | 0.00 | 0.00 | 0.00 | 25 | 1004.8 |
| 20260503225206 | 71 | 264 | 7.0 | 13.0 | 0.00 | 0.00 | 0.00 | 25 | 1004.9 |
| 20260503224705 | 71 | 278 | 3.0 | 8.0 | 0.00 | 0.00 | 0.00 | 28 | 1005.0 |
| 20260503224205 | 71 | 283 | 4.0 | 9.0 | 0.00 | 0.00 | 0.00 | 27 | 1005.0 |
| 20260503223706 | 71 | 256 | 6.0 | 12.0 | 0.00 | 0.00 | 0.00 | 26 | 1005.0 |
| 20260503223206 | 70 | 268 | 5.0 | 10.0 | 0.00 | 0.00 | 0.00 | 25 | 1005.0 |
| 20260503222706 | 71 | 277 | 7.0 | 13.0 | 0.00 | 0.00 | 0.00 | 27 | 1005.1 |
| 20260503222205 | 70 | 254 | 3.0 | 9.0 | 0.00 | 0.00 | 0.00 | 26 | 1005.0 |
| 20260503221706 | 70 | 280 | 4.0 | 9.0 | 0.00 | 0.00 | 0.00 | 27 | 1005.0 |
| 20260503220706 | 70 | 322 | 5.0 | 12.0 | 0.00 | 0.00 | 0.00 | 25 | 1005.2 |
| 20260503220205 | 70 | 258 | 5.0 | 12.0 | 0.00 | 0.00 | 0.00 | 26 | 1005.1 |
| 20260503215705 | 70 | 272 | 4.0 | 12.0 | 0.00 | 0.00 | 0.00 | 27 | 1005.2 |
| 20260503215206 | 70 | 302 | 5.0 | 12.0 | 0.00 | 0.00 | 0.00 | 26 | 1005.2 |
| 20260503214706 | 70 | 291 | 5.0 | 13.0 | 0.00 | 0.00 | 0.00 | 24 | 1005.2 |
| 20260503213705 | 70 | 278 | 9.0 | 13.0 | 0.00 | 0.00 | 0.00 | 27 | 1005.3 |
| 20260503213206 | 70 | 271 | 4.0 | 14.0 | 0.00 | 0.00 | 0.00 | 29 | 1005.3 |
| 20260503212706 | 71 | 273 | 6.0 | 10.0 | 0.00 | 0.00 | 0.00 | 29 | 1005.3 |
| 20260503211705 | 70 | 293 | 6.0 | 12.0 | 0.00 | 0.00 | 0.00 | 28 | 1005.4 |
| 20260503211205 | 70 | 306 | 7.0 | 12.0 | 0.00 | 0.00 | 0.00 | 29 | 1005.4 |
| 20260503210706 | 70 | 267 | 5.0 | 10.0 | 0.00 | 0.00 | 0.00 | 29 | 1005.4 |
| 20260503210205 | 70 | 285 | 5.0 | 14.0 | 0.00 | 0.00 | 0.00 | 29 | 1005.5 |
| 20260503205705 | 70 | 269 | 6.0 | 14.0 | 0.00 | 0.00 | 0.00 | 29 | 1005.5 |
| 20260503204706 | 70 | 321 | 5.0 | 12.0 | 0.00 | 0.00 | 0.00 | 30 | 1005.5 |
| 20260503204206 | 70 | 272 | 6.0 | 14.0 | 0.00 | 0.00 | 0.00 | 31 | 1005.6 |
| 20260503203705 | 70 | 261 | 2.0 | 6.0 | 0.00 | 0.00 | 0.00 | 34 | 1005.6 |
| 20260503203205 | 70 | 270 | 3.0 | 10.0 | 0.00 | 0.00 | 0.00 | 31 | 1005.7 |
| 20260503202706 | 70 | 311 | 6.0 | 12.0 | 0.00 | 0.00 | 0.00 | 30 | 1005.7 |
| 20260503202206 | 70 | 272 | 5.0 | 9.0 | 0.00 | 0.00 | 0.00 | 31 | 1005.7 |
| 20260503201705 | 70 | 289 | 7.0 | 12.0 | 0.00 | 0.00 | 0.00 | 31 | 1005.8 |
| 20260503201206 | 70 | 315 | 5.0 | 10.0 | 0.00 | 0.00 | 0.00 | 31 | 1005.8 |
| 20260503195705 | 69 | 277 | 5.0 | 16.0 | 0.00 | 0.00 | 0.00 | 30 | 1006.0 |
| 20260503195206 | 69 | 314 | 8.0 | 16.0 | 0.00 | 0.00 | 0.00 | 30 | 1006.0 |
| 20260503194706 | 69 | 274 | 9.0 | 15.0 | 0.00 | 0.00 | 0.00 | 30 | 1006.1 |
| 20260503194206 | 69 | 280 | 5.0 | 15.0 | 0.00 | 0.00 | 0.00 | 31 | 1006.2 |
| 20260503193706 | 69 | 292 | 7.0 | 12.0 | 0.00 | 0.00 | 0.00 | 32 | 1006.3 |
| 20260503193206 | 69 | 295 | 12.0 | 20.0 | 0.00 | 0.00 | 0.00 | 31 | 1006.3 |
| 20260503192706 | 69 | 308 | 9.0 | 18.0 | 0.00 | 0.00 | 0.00 | 30 | 1006.3 |
| 20260503192206 | 69 | 263 | 7.0 | 14.0 | 0.00 | 0.00 | 0.00 | 30 | 1006.2 |
| 20260503191206 | 69 | 301 | 6.0 | 12.0 | 0.00 | 0.00 | 0.00 | 31 | 1006.4 |
| 20260503190706 | 69 | 301 | 5.0 | 12.0 | 0.00 | 0.00 | 0.00 | 31 | 1006.4 |
| 20260503190205 | 69 | 302 | 9.0 | 20.0 | 0.00 | 0.00 | 0.00 | 30 | 1006.4 |
| 20260503185705 | 68 | 291 | 5.0 | 15.0 | 0.00 | 0.00 | 0.00 | 33 | 1006.3 |
| 20260503185206 | 68 | 310 | 10.0 | 23.0 | 0.00 | 0.00 | 0.00 | 33 | 1006.4 |
| 20260503184706 | 68 | 310 | 5.0 | 12.0 | 0.00 | 0.00 | 0.00 | 32 | 1006.4 |
| 20260503184207 | 68 | 338 | 10.0 | 18.0 | 0.00 | 0.00 | 0.00 | 33 | 1006.5 |
| 20260503183706 | 69 | 325 | 7.0 | 13.0 | 0.00 | 0.00 | 0.00 | 34 | 1006.6 |
| 20260503183206 | 69 | 274 | 7.0 | 17.0 | 0.00 | 0.00 | 0.00 | 34 | 1006.6 |
| 20260503182706 | 69 | 279 | 6.0 | 13.0 | 0.00 | 0.00 | 0.00 | 35 | 1006.5 |
| 20260503182206 | 69 | 330 | 6.0 | 12.0 | 0.00 | 0.00 | 0.00 | 39 | 1006.6 |
| 20260503181706 | 69 | 308 | 6.0 | 16.0 | 0.00 | 0.00 | 0.00 | 37 | 1006.6 |
| 20260503181205 | 68 | 304 | 5.0 | 12.0 | 0.00 | 0.00 | 0.00 | 37 | 1006.7 |
| 20260503180706 | 68 | 330 | 7.0 | 12.0 | 0.00 | 0.00 | 0.00 | 35 | 1006.7 |
| 20260503180206 | 68 | 305 | 6.0 | 14.0 | 0.00 | 0.00 | 0.00 | 40 | 1006.7 |
| 20260503175706 | 68 | 6 | 7.0 | 16.0 | 0.00 | 0.00 | 0.00 | 37 | 1006.8 |
| 20260503175206 | 68 | 315 | 7.0 | 15.0 | 0.00 | 0.00 | 0.00 | 38 | 1006.8 |
| 20260503174705 | 67 | 318 | 5.0 | 15.0 | 0.00 | 0.00 | 0.00 | 37 | 1006.9 |
| 20260503174206 | 67 | 319 | 6.0 | 15.0 | 0.00 | 0.00 | 0.00 | 37 | 1006.9 |
| 20260503173706 | 68 | 301 | 9.0 | 15.0 | 0.00 | 0.00 | 0.00 | 37 | 1006.9 |
| 20260503173206 | 68 | 340 | 5.0 | 14.0 | 0.00 | 0.00 | 0.00 | 38 | 1006.9 |
| 20260503172706 | 68 | 353 | 4.0 | 13.0 | 0.00 | 0.00 | 0.00 | 43 | 1006.9 |
| 20260503172206 | 67 | 340 | 6.0 | 14.0 | 0.00 | 0.00 | 0.00 | 43 | 1006.9 |
| 20260503171207 | 67 | 358 | 5.0 | 12.0 | 0.00 | 0.00 | 0.00 | 41 | 1006.9 |
| 20260503170706 | 67 | 290 | 8.0 | 16.0 | 0.00 | 0.00 | 0.00 | 41 | 1006.9 |
| 20260503170206 | 67 | 328 | 4.0 | 13.0 | 0.00 | 0.00 | 0.00 | 43 | 1006.9 |
| 20260503150706 | 63 | 334 | 8.0 | 17.0 | 0.00 | 0.00 | 0.00 | 44 | 1006.7 |
| 20260503150206 | 63 | 338 | 6.0 | 14.0 | 0.00 | 0.00 | 0.00 | 45 | 1006.6 |
| 20260503140206 | 58 | 359 | 7.0 | 16.0 | 0.00 | 0.00 | 0.00 | 52 | 1006.4 |
| 20260503131207 | 55 | 297 | 3.0 | 6.0 | 0.00 | 0.00 | 0.00 | 55 | 1006.0 |
| 20260503130707 | 55 | 316 | 6.0 | 10.0 | 0.00 | 0.00 | 0.00 | 55 | 1005.9 |
| 20260503120206 | 51 | 262 | 1.0 | 3.0 | 0.00 | 0.00 | 0.00 | 58 | 1005.2 |
| 20260503110706 | 52 | 233 | 2.0 | 5.0 | 0.00 | 0.00 | 0.00 | 54 | 1004.6 |
| 20260503110206 | 52 | 198 | 0.0 | 3.0 | 0.00 | 0.00 | 0.00 | 53 | 1004.5 |
| 20260503100207 | 54 | 204 | 2.0 | 9.0 | 0.00 | 0.00 | 0.00 | 50 | 1005.1 |
| 20260503090207 | 57 | 193 | 5.0 | 12.0 | 0.00 | 0.00 | 0.00 | 46 | 1005.6 |
| 20260503081207 | 58 | 185 | 7.0 | 13.0 | 0.00 | 0.00 | 0.00 | 46 | 1005.9 |
| 20260503080206 | 59 | 181 | 6.0 | 14.0 | 0.00 | 0.00 | 0.00 | 46 | 1005.9 |